Current Conditions
Mostly Clear
Conditions



Pressure
1010.92 (hPa) - 29.85 (inHG)
Visibility

10.0 (km) - 6.2 (miles)
Temperature
19  °C
Temperature
18  °C
Dewpoint
94  %
 Humidity
Wind Speed
8  km/h
4  kts
5  mph
2.2  m/s
Wind Direction
N
45°
E
90°
135°
S
180°
225°
W
270°
315°
 340°

North North
West
Airport Data
LTBA
İstanbul Atatürk Airport
Metar :LTBA 200020Z 34004KT CAVOK 19/18 Q1011 NOSIG RMK RWY23 33003KT
Sun 20th June 03:20 am
Raw Metar Info
Raw METAR is the most common format in the world for the transmission of observational weather data. It is highly standardized through the International Civil Aviation Organization (ICAO), which allows it to be understood throughout most of the world.
API Info
Data Provided by
https://www.checkwx.com/weather/

Aviation Weather providing METAR, TAF, AIRMET, SIGMET and OUTLOOK Weather Reports
© Info
CSS/SVG/PHP scripts were developed by weather34.com for use in the weather34 template © 2015-2021

Guide Info provided by Metar-Wikipedia